MEASAT 3D

Last updated on Sun Jun 21 2026 00:03:08 GMT+0000 (Coordinated Universal Time)

1 52904U 22067B 26171.41013873 -.00000246 00000+0 00000+0 0 9992 2 52904 0.0265 352.1472 0001345 25.8731 129.7490 1.00271559 14689
UTC large
Height (km)
Speed (km/s)
/
Latitude / Longitude
Inclination (degrees)
Orbital Period (minutes)
Azimuth
Elevation
Range (km)
Doppler Factor

Next 0 passes for location: London (51.5072 / 0.1276)

No passes found over London.
MEASAT 3D